Menominee, MI

3:14 PM CDT on July 23, 2016 (GMT -0500)
Menominee-Marinette Twin County

Weather History for KMNM - May, 2014

Change the Weather History Date:

Wednesday, May 21, 2014

  Actual Average Record
Temperature  
Mean Temperature 60 °F -  
Max Temperature 78 °F 71 °F 90 °F (1975)
Min Temperature 42 °F 45 °F 32 °F (1969)
Degree Days  
Heating Degree Days 5    
Growing Degree Days 10 (Base 50)    
Moisture  
Dew Point 47 °F    
Average Humidity 70    
Maximum Humidity 93    
Minimum Humidity 30    
Precipitation  
Precipitation 0.00 in - - ()
Sea Level Pressure  
Sea Level Pressure 29.86 in    
Wind  
Wind Speed 4 mph (ENE)    
Max Wind Speed 15 mph    
Max Gust Speed 22 mph    
Visibility 8 miles    
Events      
Averages and records for this station are not official NWS values.
T = Trace of Precipitation, MM = Missing Value Source: NWS Daily Summary

Daily Weather History Graph

Daily Weather History Graph

Search for Another Location

Airport or City:

Trip Planner

Search our weather history database for the weather conditions in past years. The results will help you decide how hot, cold, wet, or windy it might be!

Date:

Astronomy

May. 21, 2014 Rise Set
Actual Time 5:14 AM CDT 8:20 PM CDT
Civil Twilight 4:39 AM CDT 8:55 PM CDT
Nautical Twilight 3:54 AM CDT 9:40 PM CDT
Astronomical Twilight 3:00 AM CDT 10:35 PM CDT
Moon 1:18 AM CDT (5/21) 12:41 PM CDT (5/21)
Length of Visible Light 16h 15m
Length of Day
15h 05m
Waning Gibbous, 48% of the Moon is Illuminated
May 21
Waning Gibbous
May 28
New
Jun 5
First Quarter
Jun 12
Full
Jun 19
Last Quarter

Hourly Weather History & Observations

Time (CDT) Temp. Windchill Dew Point Humidity Pressure Visibility Wind Dir Wind Speed Gust Speed Precip Events Conditions
12:15 AM 46.4 °F - 42.8 °F 87% 29.87 in 4.0 mi Calm Calm - N/A   Clear
12:35 AM 46.4 °F - 44.6 °F 93% 29.87 in 5.0 mi Calm Calm - N/A   Clear
12:55 AM 46.4 °F - 44.6 °F 93% 29.86 in 5.0 mi Calm Calm - N/A   Clear
1:15 AM 46.4 °F 45.2 °F 44.6 °F 93% 29.86 in 5.0 mi SE 3.5 mph - N/A   Clear
1:35 AM 46.4 °F - 42.8 °F 87% 29.85 in 5.0 mi Calm Calm - N/A   Clear
1:55 AM 44.6 °F - 42.8 °F 93% 29.85 in 4.0 mi Calm Calm - N/A   Clear
2:15 AM 46.4 °F 45.2 °F 44.6 °F 93% 29.84 in 3.0 mi NE 3.5 mph - N/A   Clear
2:35 AM 46.4 °F - 42.8 °F 87% 29.84 in 3.0 mi Calm Calm - N/A   Clear
2:55 AM 44.6 °F - 42.8 °F 93% 29.84 in 3.0 mi Calm Calm - N/A   Clear
3:15 AM 44.6 °F - 42.8 °F 93% 29.84 in 3.0 mi Calm Calm - N/A   Clear
3:35 AM 44.6 °F - 42.8 °F 93% 29.84 in 1.0 mi Calm Calm - N/A   Clear
3:55 AM 44.6 °F - 42.8 °F 93% 29.83 in 1.0 mi Calm Calm - N/A   Clear
4:15 AM 44.6 °F - 42.8 °F 93% 29.84 in 1.5 mi Calm Calm - N/A   Clear
4:35 AM 42.8 °F 41.1 °F 41.0 °F 93% 29.83 in 3.0 mi SE 3.5 mph - N/A   Clear
4:55 AM 44.6 °F 43.1 °F 42.8 °F 93% 29.83 in 3.0 mi SE 3.5 mph - N/A   Clear
5:15 AM 42.8 °F 40.1 °F 41.0 °F 93% 29.84 in 2.5 mi East 4.6 mph - N/A   Clear
5:35 AM 42.8 °F 41.1 °F 41.0 °F 93% 29.84 in 2.5 mi SE 3.5 mph - N/A   Clear
5:55 AM 42.8 °F - 41.0 °F 93% 29.84 in 2.5 mi Calm Calm - N/A   Clear
6:15 AM 44.6 °F - 41.0 °F 87% 29.85 in 3.0 mi Calm Calm - N/A   Clear
6:35 AM 44.6 °F - 42.8 °F 93% 29.86 in 3.0 mi Calm Calm - N/A   Clear
6:55 AM 46.4 °F - 42.8 °F 87% 29.86 in 4.0 mi Calm Calm - N/A   Clear
7:15 AM 48.2 °F - 44.6 °F 87% 29.86 in 5.0 mi Calm Calm - N/A   Clear
7:35 AM 50.0 °F - 44.6 °F 82% 29.86 in 5.0 mi North 3.5 mph - N/A   Clear
7:55 AM 51.8 °F - 46.4 °F 82% 29.86 in 8.0 mi WSW 3.5 mph - N/A   Clear
8:15 AM 53.6 °F - 48.2 °F 82% 29.85 in 9.0 mi SW 4.6 mph - N/A   Clear
8:35 AM 57.2 °F - 50.0 °F 77% 29.84 in 9.0 mi SSW 6.9 mph - N/A   Clear
8:55 AM 55.4 °F - 46.4 °F 72% 29.83 in 10.0 mi ESE 6.9 mph - N/A   Clear
10:35 AM 59.0 °F - 48.2 °F 67% 29.82 in 10.0 mi ESE 3.5 mph - N/A   Clear
10:55 AM 62.6 °F - 51.8 °F 68% 29.82 in 10.0 mi ESE 5.8 mph - N/A   Clear
11:15 AM 64.4 °F - 51.8 °F 64% 29.81 in 10.0 mi ESE 8.1 mph - N/A   Clear
11:35 AM 64.4 °F - 51.8 °F 64% 29.81 in 10.0 mi ESE 8.1 mph - N/A   Clear
11:55 AM 68.0 °F - 55.4 °F 64% 29.81 in 10.0 mi ESE 3.5 mph - N/A   Clear
12:15 PM 73.4 °F - 53.6 °F 50% 29.80 in 10.0 mi West 11.5 mph 21.9 mph N/A   Partly Cloudy
12:35 PM 75.2 °F - 53.6 °F 47% 29.79 in 10.0 mi WNW 10.4 mph 17.3 mph N/A   Partly Cloudy
1:15 PM 75.2 °F - 50.0 °F 41% 29.79 in 10.0 mi West 12.7 mph 21.9 mph N/A   Scattered Clouds
1:35 PM 78.8 °F - 46.4 °F 32% 29.79 in 10.0 mi WNW 12.7 mph 19.6 mph N/A   Partly Cloudy
1:55 PM 78.8 °F - 46.4 °F 32% 29.79 in 10.0 mi WNW 12.7 mph 18.4 mph N/A   Clear
2:15 PM 78.8 °F - 44.6 °F 30% 29.79 in 10.0 mi NNW 12.7 mph 17.3 mph N/A   Partly Cloudy
2:35 PM 78.8 °F - 46.4 °F 32% 29.79 in 10.0 mi WNW 9.2 mph 19.6 mph N/A   Partly Cloudy
2:55 PM 77.0 °F - 44.6 °F 32% 29.80 in 10.0 mi NNW 12.7 mph 18.4 mph N/A   Partly Cloudy
3:15 PM 77.0 °F - 44.6 °F 32% 29.80 in 10.0 mi NW 15.0 mph 21.9 mph N/A   Partly Cloudy
3:35 PM 75.2 °F - 46.4 °F 36% 29.81 in 10.0 mi NW 8.1 mph - N/A   Clear
3:55 PM 77.0 °F - 46.4 °F 34% 29.81 in 10.0 mi NNW 13.8 mph 20.7 mph N/A   Clear
4:15 PM 77.0 °F - 44.6 °F 32% 29.82 in 10.0 mi NW 11.5 mph 19.6 mph N/A   Clear
4:35 PM 75.2 °F - 46.4 °F 36% 29.83 in 10.0 mi NNW 11.5 mph 17.3 mph N/A   Partly Cloudy
4:55 PM 73.4 °F - 44.6 °F 36% 29.83 in 10.0 mi NNW 10.4 mph 16.1 mph N/A   Clear
5:15 PM 73.4 °F - 44.6 °F 36% 29.85 in 10.0 mi East 11.5 mph 16.1 mph N/A   Clear
5:35 PM 62.6 °F - 48.2 °F 59% 29.86 in 10.0 mi East 11.5 mph - N/A   Clear
5:55 PM 62.6 °F - 50.0 °F 63% 29.87 in 10.0 mi East 11.5 mph - N/A   Clear
6:15 PM 64.4 °F - 51.8 °F 64% 29.88 in 10.0 mi East 13.8 mph - N/A   Clear
6:35 PM 62.6 °F - 51.8 °F 68% 29.89 in 10.0 mi East 8.1 mph - N/A   Clear
6:55 PM 64.4 °F - 51.8 °F 64% 29.90 in 10.0 mi East 8.1 mph - N/A   Partly Cloudy
7:15 PM 62.6 °F - 50.0 °F 63% 29.91 in 10.0 mi ENE 4.6 mph - N/A   Scattered Clouds
7:35 PM 62.6 °F - 50.0 °F 63% 29.91 in 10.0 mi East 6.9 mph - N/A   Mostly Cloudy
7:55 PM 60.8 °F - 48.2 °F 63% 29.92 in 10.0 mi East 4.6 mph - N/A   Overcast
8:15 PM 59.0 °F - 48.2 °F 67% 29.92 in 10.0 mi East 4.6 mph - N/A   Overcast
8:35 PM 57.2 °F - 48.2 °F 72% 29.93 in 10.0 mi SE 3.5 mph - N/A   Overcast
8:55 PM 57.2 °F - 48.2 °F 72% 29.93 in 10.0 mi Calm Calm - N/A   Scattered Clouds
9:15 PM 55.4 °F - 48.2 °F 77% 29.94 in 10.0 mi Calm Calm - N/A   Clear
9:35 PM 55.4 °F - 48.2 °F 77% 29.94 in 10.0 mi Calm Calm - N/A   Clear
9:55 PM 53.6 °F - 48.2 °F 82% 29.95 in 10.0 mi Calm Calm - N/A   Mostly Cloudy
10:15 PM 53.6 °F - 48.2 °F 82% 29.95 in 10.0 mi Calm Calm - N/A   Overcast
10:35 PM 53.6 °F - 48.2 °F 82% 29.96 in 10.0 mi Calm Calm - N/A   Overcast
10:55 PM 53.6 °F - 48.2 °F 82% 29.96 in 10.0 mi Calm Calm - N/A   Mostly Cloudy
11:15 PM 53.6 °F - 48.2 °F 82% 29.97 in 10.0 mi Calm Calm - N/A   Mostly Cloudy
11:35 PM 53.6 °F - 48.2 °F 82% 29.97 in 10.0 mi Calm Calm - N/A   Mostly Cloudy
11:55 PM 53.6 °F - 48.2 °F 82% 29.97 in 10.0 mi NNW 4.6 mph - N/A   Scattered Clouds